TimeCDT,TemperatureF,Dew PointF,Humidity,Sea Level PressureIn,VisibilityMPH,Wind Direction,Wind SpeedMPH,Gust SpeedMPH,PrecipitationIn,Events,Conditions,WindDirDegrees,DateUTC
12:15 AM,78.8,69.8,74,29.71,10.0,South,9.2,-,N/A,,Clear,170,2012-10-18 05:15:00
12:35 AM,78.8,69.8,74,29.70,7.0,South,8.1,-,N/A,,Clear,170,2012-10-18 05:35:00
12:55 AM,78.8,69.8,74,29.70,10.0,South,9.2,-,N/A,,Clear,170,2012-10-18 05:55:00
1:15 AM,78.8,69.8,74,29.70,10.0,South,9.2,-,N/A,,Clear,170,2012-10-18 06:15:00
1:55 AM,77.0,69.8,78,29.70,10.0,South,9.2,-,N/A,,Clear,170,2012-10-18 06:55:00
2:15 AM,77.0,69.8,78,29.70,10.0,South,8.1,-,N/A,,Clear,170,2012-10-18 07:15:00
2:35 AM,77.0,69.8,78,29.71,10.0,South,8.1,-,N/A,,Clear,170,2012-10-18 07:35:00
2:55 AM,77.0,69.8,78,29.70,10.0,South,5.8,-,N/A,,Clear,180,2012-10-18 07:55:00
3:15 AM,77.0,69.8,78,29.70,10.0,South,6.9,-,N/A,,Clear,180,2012-10-18 08:15:00
3:35 AM,77.0,69.8,78,29.70,7.0,South,6.9,-,N/A,,Clear,180,2012-10-18 08:35:00
4:15 AM,77.0,69.8,78,29.70,10.0,South,6.9,-,N/A,,Clear,180,2012-10-18 09:15:00
4:35 AM,77.0,69.8,78,29.70,10.0,South,5.8,-,N/A,,Clear,170,2012-10-18 09:35:00
4:55 AM,75.2,69.8,83,29.71,10.0,South,5.8,-,N/A,,Clear,170,2012-10-18 09:55:00
5:15 AM,75.2,69.8,83,29.71,10.0,South,5.8,-,N/A,,Clear,180,2012-10-18 10:15:00
5:35 AM,75.2,69.8,83,29.72,7.0,South,6.9,-,N/A,,Clear,170,2012-10-18 10:35:00
5:55 AM,75.2,69.8,83,29.72,10.0,South,6.9,-,N/A,,Clear,170,2012-10-18 10:55:00
6:35 AM,75.2,69.8,83,29.73,10.0,South,9.2,-,N/A,,Clear,180,2012-10-18 11:35:00
6:55 AM,75.2,71.6,89,29.73,7.0,South,9.2,-,N/A,,Clear,180,2012-10-18 11:55:00
7:15 AM,77.0,71.6,83,29.73,7.0,South,10.4,-,N/A,,Clear,180,2012-10-18 12:15:00
7:35 AM,77.0,71.6,83,29.74,7.0,South,10.4,-,N/A,,Clear,190,2012-10-18 12:35:00
7:55 AM,77.0,71.6,83,29.74,7.0,South,10.4,-,N/A,,Clear,180,2012-10-18 12:55:00
8:15 AM,77.0,71.6,83,29.74,7.0,South,10.4,-,N/A,,Clear,180,2012-10-18 13:15:00
8:35 AM,78.8,71.6,78,29.75,7.0,South,10.4,-,N/A,,Clear,190,2012-10-18 13:35:00
9:15 AM,80.6,71.6,74,29.77,7.0,South,8.1,-,N/A,,Clear,180,2012-10-18 14:15:00
9:35 AM,82.4,71.6,70,29.78,10.0,South,12.7,-,N/A,,Clear,190,2012-10-18 14:35:00
9:55 AM,84.2,71.6,66,29.78,10.0,South,11.5,-,N/A,,Clear,180,2012-10-18 14:55:00
10:15 AM,86.0,71.6,62,29.78,10.0,South,11.5,-,N/A,,Clear,190,2012-10-18 15:15:00
10:35 AM,87.8,71.6,58,29.78,5.0,South,12.7,-,N/A,,Haze,190,2012-10-18 15:35:00
10:55 AM,89.6,69.8,52,29.78,7.0,SSW,12.7,18.4,N/A,,Clear,200,2012-10-18 15:55:00
11:15 AM,89.6,69.8,52,29.78,7.0,SW,9.2,-,N/A,,Clear,220,2012-10-18 16:15:00
11:35 AM,91.4,69.8,49,29.78,10.0,South,8.1,-,N/A,,Clear,190,2012-10-18 16:35:00
11:55 AM,95.0,68.0,41,29.78,7.0,South,10.4,-,N/A,,Clear,170,2012-10-18 16:55:00
12:15 PM,95.0,68.0,41,29.77,7.0,South,10.4,-,N/A,,Clear,180,2012-10-18 17:15:00
12:35 PM,96.8,64.4,34,29.76,7.0,SSE,9.2,-,N/A,,Clear,150,2012-10-18 17:35:00
12:55 PM,98.6,64.4,32,29.76,10.0,South,5.8,-,N/A,,Clear,170,2012-10-18 17:55:00
1:15 PM,98.6,62.6,30,29.75,10.0,South,8.1,-,N/A,,Clear,190,2012-10-18 18:15:00
1:35 PM,98.6,62.6,30,29.74,10.0,SSE,4.6,-,N/A,,Scattered Clouds,150,2012-10-18 18:35:00
2:15 PM,102.2,62.6,27,29.72,10.0,Calm,Calm,-,N/A,,Clear,0,2012-10-18 19:15:00
2:35 PM,100.4,60.8,27,29.71,10.0,SSW,5.8,-,N/A,,Clear,200,2012-10-18 19:35:00
2:55 PM,100.4,60.8,27,29.70,10.0,Calm,Calm,-,N/A,,Clear,0,2012-10-18 19:55:00
3:15 PM,98.6,60.8,29,29.70,10.0,ESE,3.5,-,N/A,,Scattered Clouds,110,2012-10-18 20:15:00
3:35 PM,104.0,60.8,24,29.70,10.0,SW,5.8,-,N/A,,Clear,220,2012-10-18 20:35:00
3:55 PM,104.0,60.8,24,29.69,10.0,ESE,5.8,-,N/A,,Clear,110,2012-10-18 20:55:00
4:15 PM,100.4,66.2,33,29.69,10.0,SE,15.0,-,N/A,,Clear,140,2012-10-18 21:15:00
4:35 PM,96.8,68.0,39,29.69,10.0,SE,18.4,-,N/A,,Scattered Clouds,140,2012-10-18 21:35:00
4:55 PM,96.8,68.0,39,29.68,10.0,SE,12.7,20.7,N/A,,Scattered Clouds,140,2012-10-18 21:55:00
5:15 PM,95.0,68.0,41,29.69,10.0,SE,10.4,17.3,N/A,,Clear,140,2012-10-18 22:15:00
5:35 PM,95.0,66.2,39,29.70,10.0,SSE,13.8,18.4,N/A,Thunderstorm,Clear,160,2012-10-18 22:35:00
5:55 PM,91.4,62.6,38,29.68,10.0,SSE,17.3,23.0,N/A,,Clear,150,2012-10-18 22:55:00
6:15 PM,91.4,64.4,41,29.70,10.0,SSE,13.8,19.6,N/A,Thunderstorm,Clear,150,2012-10-18 23:15:00
6:35 PM,87.8,68.0,52,29.78,10.0,North,23.0,31.1,N/A,Thunderstorm,Thunderstorm,10,2012-10-18 23:35:00
6:55 PM,77.0,66.2,69,29.77,10.0,NNE,26.5,43.7,N/A,Rain-Thunderstorm,Light Thunderstorms and Rain,20,2012-10-18 23:55:00
7:15 PM,71.6,66.2,83,29.81,2.5,NE,16.1,26.5,0.16,Rain-Thunderstorm,Heavy Thunderstorms and Rain,50,2012-10-19 00:15:00
7:35 PM,73.4,69.8,88,29.82,5.0,SE,5.8,-,0.37,Rain-Thunderstorm,Heavy Thunderstorms and Rain,130,2012-10-19 00:35:00
7:55 PM,75.2,69.8,83,29.81,10.0,NE,5.8,-,0.38,Rain-Thunderstorm,Light Thunderstorms and Rain,50,2012-10-19 00:55:00
8:35 PM,75.2,71.6,89,29.82,7.0,South,6.9,-,0.01,Rain,Light Rain,180,2012-10-19 01:35:00
8:55 PM,77.0,69.8,78,29.83,10.0,WNW,3.5,-,0.01,,Mostly Cloudy,290,2012-10-19 01:55:00
9:15 PM,75.2,69.8,83,29.85,10.0,Calm,Calm,-,N/A,Rain,Light Rain,0,2012-10-19 02:15:00
9:35 PM,75.2,69.8,83,29.84,10.0,North,3.5,-,N/A,,Mostly Cloudy,360,2012-10-19 02:35:00
9:55 PM,73.4,68.0,83,29.83,10.0,North,6.9,-,N/A,,Scattered Clouds,350,2012-10-19 02:55:00
10:15 PM,73.4,68.0,83,29.83,10.0,NNE,8.1,-,N/A,,Clear,30,2012-10-19 03:15:00
10:35 PM,73.4,68.0,83,29.84,10.0,NE,6.9,-,N/A,,Scattered Clouds,40,2012-10-19 03:35:00
10:55 PM,73.4,68.0,83,29.85,10.0,NNE,3.5,-,N/A,,Clear,30,2012-10-19 03:55:00